Regional Weather Roundup
Issued by NWS Cleveland, OH

Home | Current Version | Previous Version | Text Only | Print | Product List | Glossary Off
Versions: 1 2 3 4 5 6 7 8 9 10 11 12 13 14 15 16 17 18 19 20 21 22 23 24 25 26 27 28 29 30 31 32 33 34 35 36 37 38 39 40 41 42 43 44 45 46 47 48 49 50

000
ASUS41 KCLE 240610
RWRCLE
OHIO REGIONAL WEATHER ROUNDUP
NATIONAL WEATHER SERVICE WILMINGTON, OH
200 AM EDT SAT JUN 24 2017

NOTE: "FAIR" INDICATES FEW OR NO CLOUDS BELOW 12,000 FEET WITH NO
SIGNIFICANT WEATHER AND/OR OBSTRUCTIONS TO VISIBILITY.

OHZ001>008-015>018-024>027-034-035-043-044-240700-
   NORTHWEST OHIO

CITY           SKY/WX    TMP DP  RH WIND       PRES   REMARKS
DEFIANCE       FAIR      59  54  83 CALM      29.80S
FINDLAY        FAIR      63  54  72 W9        29.79R
TOLEDO EXPRESS FAIR      60  56  86 W10       29.78R
TOLEDO EXEC    FAIR      63  57  81 W5        29.78R
LIMA           NOT AVBL
$$

OHZ009>014-019>023-028>033-038-089-240700-
   NORTHEAST OHIO

CITY           SKY/WX    TMP DP  RH WIND       PRES   REMARKS
CLE-HOPKINS    FAIR      70  65  84 W10       29.76R
CLE-LAKEFRONT  MOCLDY    71  66  84 W13       29.72R
CUY CO. ARPT   NOT AVBL
LORAIN-ELYRIA  FAIR      67  60  78 W7        29.77R
ASHTABULA      CLOUDY    68  68 100 W7        29.72R
AKRON-CANTON   CLOUDY    69  65  86 W10       29.76R
WOOSTER        FAIR      67  64  90 NW12      29.78R
MANSFIELD      FAIR      64  62  93 W6        29.80R
YOUNGSTOWN     LGT RAIN  66  64  93 W5        29.73R FOG
$$

OHZ042-051>053-060>062-070>072-077>081-240700-
  SOUTHWEST OHIO

CITY           SKY/WX    TMP DP  RH WIND       PRES   REMARKS
CINC-COVINGTON FAIR      65  65 100 W5        29.87F
CINC-LUNKEN    FAIR      64  64 100 S3        29.87
HAMILTON       FAIR      65  65 100 W3        29.87S
DAYTON         FAIR      62  61  96 W9        29.86S
WRIGHT-PAT AFB FAIR      63  63 100 SW6       29.85R
DAYTON GENERAL FAIR      64  63  96 SW5       29.86R
WILMINGTON     FAIR      65  65 100 W7        29.86S
$$

OHZ036-037-039>041-045>050-054>059-063>069-073>076-082>088-240700-
  CENTRAL AND SOUTHEAST OHIO

CITY           SKY/WX    TMP DP  RH WIND       PRES   REMARKS
COLUMBUS       FAIR      67  66  97 W9        29.81R
OSU AIRPORT    FAIR      64  64 100 W7        29.82R
BOLTON FIELD   NOT AVBL
RICKENBACK AFB FAIR      64  64 100 SW6       29.82R
NEWARK         CLOUDY    67  64  90 W7        29.80R
MARION         FAIR      64  59  83 W5        29.80F
LANCASTER      MOCLDY    65  64  97 W6        29.82S
ZANESVILLE     LGT RAIN  68  65  90 W7        29.80R
NEW PHILLY     CLOUDY    69  67  93 W6        29.77R
$$




USA.gov is the U.S. government's official web portal to all federal, state and local government web resources and services.